GW0010 Weather Reports


time (UTC)temp
F
wind
direction
speed
knots
gust
knots
rain 1hr
in
rain 24hr
in
rain mn
in
humidity
%
barometer
mb
20260504020359 73 263 9.6 12.2 0.00 0.00 0.00 15 1025.3
20260504015357 73 237 7.8 13.0 0.00 0.00 0.00 15 1025.5
20260504014355 74 246 10.4 12.2 0.00 0.00 0.00 15 1024.8
20260504013350 74 256 10.4 13.9 0.00 0.00 0.00 15 1024.7
20260504012350 75 270 5.2 9.6 0.00 0.00 0.00 14 1024.8
20260504011350 75 237 7.8 11.3 0.00 0.00 0.00 14 1024.6
20260504010348 75 249 7.0 11.3 0.00 0.00 0.00 14 1024.5
20260504005347 76 290 10.4 13.0 0.00 0.00 0.00 14 1024.3
20260504004342 77 268 5.2 8.7 0.00 0.00 0.00 13 1024.6
20260504003341 77 300 4.3 7.8 0.00 0.00 0.00 13 1024.3
20260504002340 77 238 6.1 9.6 0.00 0.00 0.00 13 1024.2
20260504001340 78 241 6.1 9.6 0.00 0.00 0.00 12 1024.2
20260504000340 78 278 12.2 13.9 0.00 0.00 0.00 12 1023.9
20260503235335 78 261 6.1 7.8 0.00 0.00 0.00 11 1024.1
20260503234330 78 255 10.4 12.2 0.00 0.00 0.00 10 1023.9
20260503233329 78 246 7.8 12.2 0.00 0.00 0.00 11 1024.2
20260503232329 78 237 9.6 13.0 0.00 0.00 0.00 12 1024.3
20260503231329 79 235 7.0 7.8 0.00 0.00 0.00 10 1023.8
20260503230328 80 243 11.3 14.8 0.00 0.00 0.00 11 1023.8
20260503225327 78 255 6.1 11.3 0.00 0.00 0.00 11 1024.3
20260503224327 78 258 6.1 11.3 0.00 0.00 0.00 11 1024.1
20260503223322 79 268 10.4 13.0 0.00 0.00 0.00 12 1024.6
20260503222322 79 239 5.2 7.0 0.00 0.00 0.00 12 1024.7
20260503221319 78 259 10.4 14.8 0.00 0.00 0.00 11 1024.5
20260503220317 78 253 5.2 7.8 0.00 0.00 0.00 12 1024.5
20260503215317 78 269 8.7 15.6 0.00 0.00 0.00 12 1024.5
20260503214312 78 238 6.1 7.0 0.00 0.00 0.00 10 1024.6
20260503213307 77 216 5.2 12.2 0.00 0.00 0.00 14 1024.7
20260503212301 78 255 7.0 9.6 0.00 0.00 0.00 13 1025.3
20260503211301 77 308 6.1 12.2 0.00 0.00 0.00 14 1025.1
20260503210259 77 249 5.2 12.2 0.00 0.00 0.00 13 1025.6
20260503205256 77 257 7.8 14.8 0.00 0.00 0.00 13 1025.3
20260503204256 78 247 8.7 11.3 0.00 0.00 0.00 13 1025.5
20260503203251 78 230 1.7 5.2 0.00 0.00 0.00 13 1025.9
20260503202246 75 264 4.3 8.7 0.00 0.00 0.00 14 1026.1
20260503201246 77 259 7.8 12.2 0.00 0.00 0.00 14 1026.2
20260503200245 75 221 3.5 5.2 0.00 0.00 0.00 16 1026.4
20260503195245 75 266 6.1 9.6 0.00 0.00 0.00 16 1026.5
20260503194244 75 277 8.7 9.6 0.00 0.00 0.00 16 1026.5
20260503193243 75 226 5.2 13.0 0.00 0.00 0.00 16 1026.8
20260503192239 75 215 5.2 7.8 0.00 0.00 0.00 16 1026.9
20260503191234 75 246 7.8 11.3 0.00 0.00 0.00 15 1026.9
20260503190233 74 212 1.7 8.7 0.00 0.00 0.00 15 1027.0
20260503185232 74 243 5.2 7.8 0.00 0.00 0.00 15 1027.5
20260503184229 74 226 2.6 6.1 0.00 0.00 0.00 16 1027.5
20260503183229 73 249 1.7 7.8 0.00 0.00 0.00 17 1027.6
20260503182225 73 278 4.3 8.7 0.00 0.00 0.00 17 1027.6
20260503181224 72 250 5.2 7.8 0.00 0.00 0.00 19 1028.0
20260503180219 73 272 7.0 9.6 0.00 0.00 0.00 17 1027.8
20260503175219 71 221 0.9 1.7 0.00 0.00 0.00 18 1028.0
20260503174218 72 281 6.1 7.0 0.00 0.00 0.00 18 1028.3
20260503173215 70 238 4.3 6.1 0.00 0.00 0.00 21 1028.3
20260503172215 70 283 7.0 8.7 0.00 0.00 0.00 20 1028.3
20260503171214 69 218 2.6 7.0 0.00 0.00 0.00 22 1028.3
20260503170214 71 240 4.3 7.8 0.00 0.00 0.00 19 1028.7
20260503160159 68 239 5.2 7.8 0.00 0.00 0.00 24 1028.5
20260503150142 64 214 1.7 4.3 0.00 0.00 0.00 35 1027.8
20260503140135 61 99 2.6 2.6 0.00 0.00 0.00 65 1027.5
20260503131128 54 95 3.5 5.2 0.00 0.00 0.00 84 1026.6
20260503130123 53 88 2.6 4.3 0.00 0.00 0.00 86 1026.6
20260503120111 51 103 4.3 6.1 0.00 0.00 0.00 89 1025.6
20260503081024 57 173 1.7 2.6 0.00 0.00 0.00 67 1026.1
20260503072014 62 220 0.0 0.9 0.00 0.00 0.00 39 1026.4
20260503071014 62 217 0.9 4.3 0.00 0.00 0.00 39 1026.4
20260503054956 65 255 6.1 7.8 0.00 0.00 0.00 34 1026.5
20260503053956 64 230 3.5 5.2 0.00 0.00 0.00 34 1026.5
20260503052956 65 255 4.3 7.0 0.00 0.00 0.00 33 1026.2
20260503051955 65 251 7.0 8.7 0.00 0.00 0.00 33 1026.6
20260503050955 65 233 4.3 7.0 0.00 0.00 0.00 33 1026.4
20260503045954 65 245 4.3 7.0 0.00 0.00 0.00 33 1026.4
20260503044954 66 231 2.6 5.2 0.00 0.00 0.00 33 1026.4
20260503043954 66 234 6.1 7.8 0.00 0.00 0.00 32 1026.2
20260503042952 65 222 3.5 5.2 0.00 0.00 0.00 32 1026.1
20260503041952 66 229 4.3 6.1 0.00 0.00 0.00 32 1026.4
20260503040952 66 241 4.3 8.7 0.00 0.00 0.00 31 1026.2
20260503035952 67 249 4.3 5.2 0.00 0.00 0.00 31 1026.2
20260503034947 68 249 7.0 8.7 0.00 0.00 0.00 30 1026.0
20260503033947 68 265 6.1 9.6 0.00 0.00 0.00 30 1025.7
20260503032942 68 260 6.1 7.8 0.00 0.00 0.00 29 1025.9
20260503031937 68 235 3.5 7.0 0.00 0.00 0.00 29 1025.6
20260503030937 69 233 5.2 8.7 0.00 0.00 0.00 28 1025.1
20260503025937 69 292 7.0 11.3 0.00 0.00 0.00 28 1025.2
20260503024937 69 252 7.8 12.2 0.00 0.00 0.00 28 1025.1
20260503023937 69 271 6.1 9.6 0.00 0.00 0.00 28 1025.1
20260503022936 70 244 4.3 7.0 0.00 0.00 0.00 28 1024.8
20260503021933 70 263 6.1 8.7 0.00 0.00 0.00 28 1024.5